This is the latest recevied weather packets stored in our database for station/object KC1IUC-15. If no packets are shown the sender has not sent any weather packets the latest 10 day(s).
| Time | Temp. | Humidity | Pressure | Rain* | Wind** | Luminosity | Snow |
|---|---|---|---|---|---|---|---|
| 1778092803 | 15° C | 93% | 1007.2 hPa | 1.78 mm | - | 133 W/m² | - |
| 1778092503 | 15° C | 93% | 1007.2 hPa | 1.78 mm | - | 158 W/m² | - |
| 1778092203 | 15° C | 93% | 1007.5 hPa | 2.03 mm | - | 114 W/m² | - |
| 1778091904 | 15° C | 93% | 1007.9 hPa | 2.03 mm | - | 144 W/m² | - |
| 1778091604 | 15° C | 92% | 1007.5 hPa | 2.29 mm | - | 153 W/m² | - |
| 1778091303 | 15° C | 92% | 1007.5 hPa | 2.03 mm | - | 129 W/m² | - |
| 1778091004 | 15° C | 92% | 1007.5 hPa | 1.78 mm | - | 78 W/m² | - |
| 1778090704 | 15° C | 92% | 1007.2 hPa | 1.52 mm | - | 72 W/m² | - |
| 1778090404 | 15° C | 91% | 1007.5 hPa | 1.78 mm | - | 68 W/m² | - |
| 1778090104 | 15.56° C | 91% | 1007.2 hPa | 1.52 mm | - | 87 W/m² | - |
| 1778089803 | 15.56° C | 90% | 1007.5 hPa | 1.52 mm | - | 105 W/m² | - |
| 1778089503 | 15.56° C | 89% | 1007.5 hPa | 1.27 mm | - | 91 W/m² | - |
| 1778089204 | 15.56° C | 88% | 1007.5 hPa | 1.02 mm | - | 110 W/m² | - |
| 1778088904 | 15.56° C | 87% | 1007.9 hPa | 1.02 mm | - | 104 W/m² | - |
| 1778088603 | 16.11° C | 86% | 1007.5 hPa | 0.76 mm | - | 109 W/m² | - |
| 1778088304 | 16.11° C | 85% | 1007.9 hPa | 0.51 mm | - | 108 W/m² | - |
| 1778088003 | 16.67° C | 82% | 1008.2 hPa | 0.25 mm | - | 84 W/m² | - |
| 1778087703 | 16.67° C | 82% | 1008.2 hPa | 0.25 mm | - | 58 W/m² | - |
| 1778087404 | 16.67° C | 80% | 1008.2 hPa | 0.25 mm | - | 56 W/m² | - |
| 1778087104 | 17.22° C | 80% | 1008.6 hPa | 0.51 mm | - | 45 W/m² | - |
| 1778086804 | 17.22° C | 79% | 1008.6 hPa | 0.25 mm | - | 53 W/m² | - |
| 1778086503 | 17.22° C | 78% | 1008.6 hPa | 0.25 mm | - | 52 W/m² | - |
| 1778086204 | 17.78° C | 79% | 1008.6 hPa | 0.25 mm | - | 63 W/m² | - |
| 1778085903 | 17.78° C | 77% | 1008.6 hPa | 0.25 mm | - | 54 W/m² | - |
| 1778085604 | 17.78° C | 75% | 1008.6 hPa | 0.25 mm | - | 65 W/m² | - |
* Rain latest hour (hover to see other rain measurements)
** Current wind speed in m/s (hover to see current wind gust speed)